Location: Rounton
(54.4000°N, 1.3500°W)
Time: 07:32:09
(UTC+00:00)

Tiros 1 despin weight - Pass Details

Date: 07 December 2021
Orbit: 592 x 641 km, 48.2° (Epoch: 19 January)

Event Time Altitude Azimuth Distance (km) Brightness Sun altitude
Rises 14:27:42 0° 253° (WSW) 2,834 ? 6.4°
Reaches altitude 10° 14:30:06 10° 245° (WSW) 1,928 ? 6.2°
Maximum altitude 14:34:10 37° 178° (S) 927 ? 5.9°
Drops below altitude 10° 14:38:14 10° 111° (ESE) 1,922 ? 5.5°
Sets 14:40:37 0° 103° (ESE) 2,824 ? 5.3°
